Regional Weather Roundup
Issued by NWS Kansas City/Pleasant Hill, MO

Home | Current Version | Previous Version | Text Only | Print | Product List | Glossary On
Versions: 1 2 3 4 5 6 7 8 9 10 11 12 13 14 15 16 17 18 19 20 21 22 23 24 25 26 27 28 29 30 31 32 33 34 35 36 37 38 39 40 41 42 43 44 45 46 47 48 49 50
000
ASUS43 KEAX 200111
RWREAX

WEATHER ROUNDUP FOR EASTERN KANSAS AND NORTHWEST MISSOURI
NATIONAL WEATHER SERVICE KANSAS CITY/PLEASANT HILL MO
700 PM CST FRI DEC 19 2014

KSZ040-057-103>105-MOZ028-029-037-043-200200-
...KANSAS CITY METROPOLITAN AREA...

CITY           SKY/WX    TMP DP  RH WIND       PRES   REMARKS
K.C. INTL      CLOUDY    32  30  92 SW3       30.20S
K.C. DOWNTOWN  CLOUDY    35  31  85 CALM      30.21S
LEES SUMMIT    CLOUDY    34  32  92 E5        30.21S FOG     WCI  30
OLATHE - IXD   CLOUDY    32  31  96 CALM      30.20S FOG
OLATHE - OJC   CLOUDY    33  32  96 SE3       30.19S FOG
LAWRENCE       CLOUDY    33  29  85 SW3       30.22R

$$

MOZ001>008-011>017-020>025-030>033-038>040-044>046-053-054-200200-
...NORTHERN AND CENTRAL MISSOURI...

CITY           SKY/WX    TMP DP  RH WIND       PRES   REMARKS
ST. JOSEPH     CLOUDY    32  29  88 S6        30.21S WCI  26
MOSBY          CLOUDY    32  32 100 CALM      30.22S
WARRENSBURG    CLOUDY    34  34 100 CALM      30.22S FOG
WHITEMAN AFB   CLOUDY    36  34  93 SE2       30.21S
CLINTON        CLOUDY    37  36  93 CALM      30.22S
SEDALIA        CLOUDY    36  34  92 SE7       30.22S FOG     WCI  30
WARSAW         NOT AVBL
MARSHALL       CLOUDY    37  36  93 CALM      30.23S
CHILLICOTHE      N/A     34  31  88 CALM      30.23S
KIRKSVILLE     CLOUDY    32  30  92 SE8       30.23S FOG     WCI  25

$$

MOZ041-047>049-056>058-063>065-088>090-097-200200-
...EASTERN AND SOUTHERN MISSOURI...

CITY           SKY/WX    TMP DP  RH WIND       PRES   REMARKS
ST. LOUIS INTL CLOUDY    36  28  73 E9        30.27S WCI  29
SPIRIT OF STL  CLOUDY    36  30  79 NE5       30.26S HAZE    WCI  32
COLUMBIA       CLOUDY    35  32  88 SE6       30.23S WCI  30
JEFFERSON CITY CLOUDY    37  32  82 E3        30.24S
MEXICO         CLOUDY   N/A N/A N/A SE3       30.25R
HANNIBAL       CLOUDY    34  27  75 SE3       30.26S
ROLLA          CLOUDY    34  31  88 SE3       30.20S
LEBANON        FOG       36  34  93 SE6       30.20S VSB 3/4 WCI  31
OSAGE BEACH    CLOUDY    37  34  87 SE3       30.22S
SPRINGFIELD    CLOUDY    38  36  92 S7        30.19R WCI  33
BRANSON        CLOUDY    37  36  93 CALM      30.20R FOG
NEVADA         CLOUDY    37  36  93 CALM      30.22S FOG
JOPLIN         FOG       39  38  96 CALM      30.21R VSB 1/2
WEST PLAINS    CLOUDY    36  32  85 E3        30.22S

$$

IAZ060-094-KSZ022-034>040-054-083-096-NEZ052-066-093-200200-
...KANSAS...SOUTHEAST NEBRASKA AND IOWA...

CITY           SKY/WX    TMP DP  RH WIND       PRES   REMARKS
TOPEKA         CLOUDY    34  28  79 SW3       30.21S
MANHATTAN      CLOUDY    34  30  85 CALM      30.18S
EMPORIA        CLOUDY    32  28  85 W5        30.20R WCI  27
CHANUTE        CLOUDY    35  34  96 CALM      30.21S FOG
WICHITA        CLOUDY    37  33  85 S7        30.18S WCI  32
OMAHA          CLOUDY    32  29  88 S10       30.17S FOG     WCI  24
LINCOLN        CLOUDY    34  29  82 S9        30.15S WCI  27
FALLS CITY     CLOUDY    31  27  85 S5        30.19S WCI  26
LAMONI         CLOUDY    31  29  92 SE6       30.19S WCI  25
DES MOINES     CLOUDY    33  28  81 SE7       30.20S WCI  27

$$



USA.gov is the U.S. government's official web portal to all federal, state and local government web resources and services.